Location: Sperry Observatory
(40.6664°N, 74.3236°W)
Time: 21:57:43
(UTC-05:00)

UOSAT-12 - Visible Passes

Search period start: 27 November 2014 00:00
Search period end: 07 December 2014 00:00
Orbit: 594 x 663 km, 64.6° (Epoch: 27 November)

Date Brightness Start Highest point End Pass type
(mag) Time Alt. Az. Time Alt. Az. Time Alt. Az.
27 Nov 8.3 04:30:05 24° S 04:32:27 42° ESE 04:36:53 10° NE visible
27 Nov 8.2 06:08:51 10° WSW 06:12:44 26° NW 06:16:41 10° N visible
28 Nov 7.0 04:51:59 63° SW 04:52:44 87° WNW 04:57:29 10° NNE visible
29 Nov 9.9 03:35:50 16° ENE 03:35:50 16° ENE 03:37:03 10° ENE visible
29 Nov 7.5 05:13:14 41° NW 05:13:14 41° NW 05:17:43 10° NNE visible
30 Nov 9.5 03:56:44 18° NE 03:56:44 18° NE 03:58:04 10° NE visible
30 Nov 8.5 05:34:07 22° NW 05:34:07 22° NW 05:37:37 10° N visible
01 Dec 9.4 04:17:22 18° NNE 04:17:22 18° NNE 04:18:33 10° NNE visible
01 Dec 9.1 05:54:44 13° NW 05:54:49 13° NW 05:56:54 10° N visible
02 Dec 9.4 04:37:49 15° N 04:37:49 15° N 04:38:42 10° NNE visible
03 Dec 9.5 04:58:07 11° N 04:58:07 11° N 04:58:29 10° N visible
